Location: Brno
(49.2000°N, 16.6330°E)
Time: 10:38:21
(UTC+02:00)

ISS - Pass Details

Date: 26 May 2021
Orbit: 417 x 422 km, 51.6° (Epoch: 13 June)

Event Time Altitude Azimuth Distance (km) Brightness Sun altitude
Rises 23:01:59 0° 289° (WNW) 2,368 0.8 -15.5°
Reaches altitude 10° 23:04:09 10° 281° (WNW) 1,502 -0.4 -15.6°
Maximum altitude 23:07:19 39° 212° (SSW) 649 -3.1 -15.9°
Enters shadow 23:07:52 36° 186° (S) 690 -3.1 -15.9°
